SWA2966 KLGB-KRNO

Flight info

Callsign SWA2966
Flight time 1h 3m
Altitude 38000
Route TOPMM5 CSTRO SHERF DNGLE1
Aircraft B738/M-SADE2E3GIJ4RWZ/LB1D1

Departure

Time 2026-04-29 16:45
Airport Long Beach International Airport (KLGB)

Arrival

Time 2026-04-29 17:48
Airport Reno Tahoe International Airport (KRNO)
Time Latitude Longitude Altitude Speed Heading
2026-04-29 16:29 33.81939 -118.14607 51 ft 0 kts 90°
2026-04-29 16:35 33.81939 -118.14622 48 ft 3 kts 90°
2026-04-29 16:36 33.81939 -118.14646 50 ft 3 kts 90°
2026-04-29 16:36 33.81939 -118.14670 49 ft 4 kts 90°
2026-04-29 16:36 33.81941 -118.14690 49 ft 5 kts 131°
2026-04-29 16:36 33.81953 -118.14700 47 ft 2 kts 178°
2026-04-29 16:37 33.81965 -118.14700 47 ft 3 kts 180°
2026-04-29 16:37 33.81975 -118.14700 50 ft 1 kts 180°
2026-04-29 16:40 33.81903 -118.14700 52 ft 17 kts 180°
2026-04-29 16:41 33.81836 -118.14788 52 ft 16 kts 223°
2026-04-29 16:41 33.81711 -118.14803 52 ft 19 kts 180°
2026-04-29 16:41 33.81593 -118.14726 47 ft 22 kts 136°
2026-04-29 16:41 33.81479 -118.14595 48 ft 24 kts 136°
2026-04-29 16:42 33.81364 -118.14451 46 ft 24 kts 134°
2026-04-29 16:42 33.81243 -118.14304 43 ft 24 kts 134°
2026-04-29 16:42 33.81129 -118.14159 42 ft 24 kts 133°
2026-04-29 16:42 33.81011 -118.14021 42 ft 23 kts 135°
2026-04-29 16:43 33.80899 -118.13885 39 ft 24 kts 135°
2026-04-29 16:43 33.80784 -118.13759 36 ft 15 kts 173°
2026-04-29 16:43 33.80772 -118.13763 36 ft 0 kts 194°
2026-04-29 16:43 33.80768 -118.13764 36 ft 6 kts 194°
2026-04-29 16:44 33.80716 -118.13846 33 ft 16 kts 295°
2026-04-29 16:44 33.80912 -118.14091 39 ft 70 kts 315°
2026-04-29 16:44 33.81395 -118.14673 44 ft 124 kts 316°
2026-04-29 16:44 33.82096 -118.15531 138 ft 158 kts 314°
2026-04-29 16:45 33.82911 -118.16521 403 ft 180 kts 314°
2026-04-29 16:45 33.83808 -118.17666 828 ft 196 kts 311°
2026-04-29 16:45 33.84740 -118.18946 1230 ft 213 kts 310°
2026-04-29 16:45 33.85661 -118.20322 1995 ft 216 kts 303°
2026-04-29 16:46 33.86269 -118.22053 2739 ft 229 kts 277°
2026-04-29 16:46 33.86343 -118.23873 4119 ft 213 kts 270°
2026-04-29 16:46 33.86359 -118.25662 4601 ft 220 kts 272°
2026-04-29 16:46 33.86599 -118.27585 4961 ft 248 kts 282°
2026-04-29 16:47 33.87015 -118.29615 4993 ft 254 kts 285°
2026-04-29 16:47 33.87490 -118.31704 5000 ft 265 kts 285°
2026-04-29 16:47 33.87949 -118.33841 5011 ft 262 kts 284°
2026-04-29 16:47 33.88372 -118.35968 5002 ft 261 kts 283°
2026-04-29 16:48 33.88784 -118.38115 5597 ft 262 kts 283°
2026-04-29 16:48 33.89196 -118.40259 6645 ft 265 kts 283°
2026-04-29 16:48 33.89682 -118.42405 7658 ft 269 kts 291°
2026-04-29 16:48 33.90643 -118.44339 8654 ft 272 kts 309°
2026-04-29 16:49 33.92094 -118.45827 9641 ft 278 kts 327°
2026-04-29 16:49 33.93767 -118.46962 10553 ft 283 kts 328°
2026-04-29 16:49 33.95504 -118.48093 11415 ft 286 kts 328°
2026-04-29 16:49 33.97268 -118.49237 12277 ft 290 kts 328°
2026-04-29 16:50 33.99070 -118.50362 13144 ft 296 kts 333°
2026-04-29 16:50 34.00985 -118.51307 14042 ft 300 kts 333°
2026-04-29 16:50 34.02935 -118.52254 14828 ft 304 kts 333°
2026-04-29 16:50 34.04912 -118.53203 15654 ft 308 kts 333°
2026-04-29 16:51 34.06915 -118.54163 16496 ft 312 kts 333°
2026-04-29 16:51 34.08945 -118.55140 17307 ft 316 kts 333°
2026-04-29 16:51 34.11011 -118.56008 18111 ft 322 kts 338°
2026-04-29 16:51 34.13175 -118.56795 18849 ft 327 kts 338°
2026-04-29 16:52 34.15366 -118.57582 19575 ft 331 kts 338°
2026-04-29 16:52 34.17584 -118.58375 20303 ft 334 kts 338°
2026-04-29 16:52 34.19826 -118.59179 21031 ft 338 kts 338°
2026-04-29 16:52 34.22091 -118.59992 21757 ft 341 kts 338°
2026-04-29 16:53 34.24379 -118.60817 22471 ft 345 kts 338°
2026-04-29 16:53 34.26692 -118.61651 23195 ft 349 kts 338°
2026-04-29 16:53 34.28999 -118.62483 23851 ft 353 kts 337°
2026-04-29 16:53 34.31364 -118.63335 24207 ft 358 kts 338°
2026-04-29 16:54 34.33797 -118.64210 24583 ft 369 kts 338°
2026-04-29 16:54 34.36262 -118.65101 25169 ft 374 kts 338°
2026-04-29 16:54 34.38764 -118.66009 25762 ft 377 kts 337°
2026-04-29 16:54 34.41292 -118.66931 26310 ft 381 kts 337°
2026-04-29 16:55 34.43840 -118.67860 26825 ft 386 kts 336°
2026-04-29 16:55 34.46468 -118.68832 26924 ft 402 kts 336°
2026-04-29 16:55 34.49153 -118.69840 27014 ft 417 kts 336°
2026-04-29 16:55 34.51958 -118.70907 27251 ft 426 kts 336°
2026-04-29 16:56 34.54803 -118.71993 27631 ft 431 kts 335°
2026-04-29 16:56 34.57680 -118.73097 28048 ft 436 kts 335°
2026-04-29 16:56 34.60577 -118.74212 28504 ft 437 kts 335°
2026-04-29 16:56 34.63483 -118.75331 28947 ft 439 kts 335°
2026-04-29 16:57 34.66403 -118.76459 29334 ft 442 kts 334°
2026-04-29 16:57 34.69343 -118.77597 29694 ft 445 kts 334°
2026-04-29 16:57 34.72259 -118.78730 30086 ft 446 kts 334°
2026-04-29 16:57 34.75223 -118.79884 30441 ft 448 kts 334°
2026-04-29 16:58 34.78185 -118.81039 30900 ft 446 kts 334°
2026-04-29 16:58 34.81145 -118.82188 31344 ft 446 kts 333°
2026-04-29 16:58 34.84102 -118.83337 31751 ft 446 kts 333°
2026-04-29 16:58 34.87056 -118.84487 32168 ft 446 kts 333°
2026-04-29 16:59 34.90010 -118.85639 32520 ft 446 kts 333°
2026-04-29 16:59 34.92961 -118.86788 32985 ft 444 kts 333°
2026-04-29 16:59 34.95794 -118.88083 33271 ft 432 kts 321°
2026-04-29 16:59 34.98093 -118.90237 33852 ft 410 kts 309°
2026-04-29 17:00 35.00274 -118.92512 34024 ft 422 kts 315°
2026-04-29 17:00 35.02794 -118.94400 34504 ft 425 kts 320°
2026-04-29 17:00 35.05378 -118.96200 34752 ft 429 kts 321°
2026-04-29 17:00 35.07984 -118.97954 35182 ft 427 kts 321°
2026-04-29 17:01 35.10584 -118.99709 35499 ft 426 kts 320°
2026-04-29 17:01 35.13166 -119.01486 35835 ft 425 kts 320°
2026-04-29 17:01 35.15732 -119.03281 36169 ft 424 kts 320°
2026-04-29 17:01 35.18259 -119.05051 36491 ft 424 kts 320°
2026-04-29 17:02 35.20823 -119.06837 36808 ft 424 kts 320°
2026-04-29 17:02 35.23385 -119.08611 37152 ft 422 kts 320°
2026-04-29 17:02 35.25936 -119.10374 37502 ft 420 kts 320°
2026-04-29 17:02 35.28470 -119.12131 37859 ft 417 kts 319°
2026-04-29 17:03 35.30986 -119.13883 38157 ft 416 kts 319°
2026-04-29 17:03 35.33517 -119.15657 38166 ft 420 kts 319°
2026-04-29 17:03 35.38584 -119.19190 38150 ft 417 kts 320°
2026-04-29 17:04 35.43661 -119.22528 38142 ft 426 kts 328°
2026-04-29 17:04 35.46557 -119.23528 38168 ft 442 kts 341°
2026-04-29 17:04 35.49663 -119.23873 38203 ft 451 kts 347°
2026-04-29 17:05 35.55980 -119.24222 38187 ft 454 kts 348°
2026-04-29 17:05 35.61204 -119.24484 38157 ft 450 kts 348°
2026-04-29 17:06 35.68458 -119.24962 38160 ft 449 kts 347°
2026-04-29 17:06 35.74710 -119.25342 38165 ft 450 kts 348°
2026-04-29 17:07 35.79947 -119.25647 38161 ft 450 kts 348°
2026-04-29 17:07 35.86159 -119.26028 38168 ft 450 kts 348°
2026-04-29 17:08 35.92411 -119.26412 38164 ft 450 kts 348°
2026-04-29 17:08 35.98656 -119.26790 38173 ft 449 kts 348°
2026-04-29 17:09 36.04905 -119.27174 38177 ft 449 kts 349°
2026-04-29 17:09 36.11022 -119.27538 38166 ft 441 kts 349°
2026-04-29 17:10 36.17160 -119.27923 38175 ft 443 kts 349°
2026-04-29 17:10 36.23340 -119.28308 38166 ft 446 kts 349°
2026-04-29 17:11 36.29495 -119.28677 38165 ft 444 kts 349°
2026-04-29 17:11 36.35632 -119.29050 38160 ft 440 kts 349°
2026-04-29 17:12 36.41764 -119.29438 38158 ft 442 kts 349°
2026-04-29 17:12 36.46867 -119.29751 38162 ft 442 kts 349°
2026-04-29 17:13 36.54053 -119.30192 38156 ft 442 kts 349°
2026-04-29 17:13 36.60139 -119.30570 38147 ft 439 kts 349°
2026-04-29 17:14 36.66234 -119.30948 38147 ft 438 kts 349°
2026-04-29 17:14 36.72330 -119.31328 38149 ft 439 kts 349°
2026-04-29 17:15 36.78388 -119.31704 38143 ft 439 kts 349°
2026-04-29 17:15 36.84469 -119.32083 38152 ft 436 kts 349°
2026-04-29 17:16 36.90528 -119.32461 38144 ft 437 kts 349°
2026-04-29 17:16 36.96589 -119.32840 38162 ft 436 kts 349°
2026-04-29 17:17 37.02634 -119.33218 38161 ft 434 kts 349°
2026-04-29 17:17 37.08627 -119.33594 38165 ft 434 kts 350°
2026-04-29 17:18 37.14656 -119.33972 38182 ft 434 kts 350°
2026-04-29 17:18 37.20678 -119.34351 38181 ft 433 kts 350°
2026-04-29 17:19 37.26640 -119.34728 38196 ft 431 kts 350°
2026-04-29 17:19 37.32620 -119.35107 38201 ft 430 kts 350°
2026-04-29 17:20 37.38595 -119.35484 38214 ft 430 kts 351°
2026-04-29 17:20 37.44568 -119.35860 38225 ft 430 kts 351°
2026-04-29 17:21 37.47580 -119.36073 37515 ft 438 kts 349°
2026-04-29 17:21 37.50580 -119.36402 36835 ft 440 kts 348°
2026-04-29 17:21 37.53632 -119.36826 36199 ft 440 kts 348°
2026-04-29 17:21 37.56639 -119.37246 35797 ft 430 kts 349°
2026-04-29 17:22 37.59589 -119.37615 35393 ft 422 kts 350°
2026-04-29 17:22 37.62484 -119.37945 35005 ft 413 kts 350°
2026-04-29 17:22 37.65327 -119.38266 34594 ft 406 kts 350°
2026-04-29 17:22 37.68118 -119.38597 34189 ft 399 kts 350°
2026-04-29 17:23 37.70859 -119.38936 33762 ft 392 kts 350°
2026-04-29 17:23 37.73511 -119.39266 33382 ft 386 kts 350°
2026-04-29 17:23 37.76163 -119.39591 32992 ft 380 kts 350°
2026-04-29 17:23 37.78777 -119.39907 32607 ft 374 kts 350°
2026-04-29 17:24 37.81353 -119.40215 32214 ft 369 kts 350°
2026-04-29 17:24 37.83891 -119.40521 31827 ft 364 kts 350°
2026-04-29 17:24 37.86395 -119.40827 31449 ft 359 kts 350°
2026-04-29 17:24 37.88865 -119.41131 31061 ft 354 kts 350°
2026-04-29 17:25 37.91304 -119.41429 30674 ft 350 kts 350°
2026-04-29 17:25 37.93681 -119.41718 30279 ft 346 kts 350°
2026-04-29 17:25 37.96060 -119.42007 29887 ft 342 kts 350°
2026-04-29 17:25 37.98428 -119.42297 29524 ft 343 kts 350°
2026-04-29 17:26 38.00809 -119.42590 29159 ft 344 kts 350°
2026-04-29 17:26 38.03200 -119.42883 28756 ft 346 kts 350°
2026-04-29 17:26 38.05599 -119.43175 28352 ft 347 kts 350°
2026-04-29 17:26 38.08000 -119.43468 27968 ft 349 kts 350°
2026-04-29 17:27 38.10418 -119.43763 27547 ft 350 kts 350°
2026-04-29 17:27 38.12846 -119.44061 27169 ft 351 kts 350°
2026-04-29 17:27 38.15252 -119.44357 26733 ft 353 kts 350°
2026-04-29 17:27 38.17699 -119.44657 26337 ft 354 kts 350°
2026-04-29 17:28 38.20143 -119.44961 26083 ft 349 kts 350°
2026-04-29 17:28 38.22541 -119.45279 25955 ft 343 kts 349°
2026-04-29 17:28 38.24901 -119.45604 25773 ft 338 kts 349°
2026-04-29 17:28 38.27232 -119.45925 25632 ft 338 kts 349°
2026-04-29 17:29 38.29585 -119.46247 25481 ft 341 kts 349°
2026-04-29 17:29 38.31944 -119.46563 25322 ft 340 kts 349°
2026-04-29 17:29 38.34264 -119.46871 25171 ft 340 kts 349°
2026-04-29 17:29 38.36616 -119.47185 25010 ft 339 kts 349°
2026-04-29 17:30 38.38957 -119.47498 24849 ft 339 kts 349°
2026-04-29 17:30 38.41301 -119.47814 24695 ft 338 kts 349°
2026-04-29 17:30 38.43639 -119.48130 24550 ft 337 kts 349°
2026-04-29 17:30 38.45971 -119.48446 24402 ft 336 kts 349°
2026-04-29 17:31 38.48295 -119.48759 24254 ft 336 kts 349°
2026-04-29 17:31 38.50619 -119.49072 24085 ft 336 kts 349°
2026-04-29 17:31 38.52907 -119.49381 23917 ft 335 kts 349°
2026-04-29 17:31 38.55217 -119.49693 23770 ft 333 kts 349°
2026-04-29 17:32 38.57517 -119.50005 23607 ft 332 kts 350°
2026-04-29 17:32 38.59814 -119.50316 23457 ft 332 kts 350°
2026-04-29 17:32 38.62107 -119.50627 23307 ft 330 kts 350°
2026-04-29 17:32 38.64389 -119.50936 23104 ft 331 kts 350°
2026-04-29 17:33 38.66688 -119.51249 22730 ft 333 kts 350°
2026-04-29 17:33 38.68995 -119.51561 22376 ft 333 kts 350°
2026-04-29 17:33 38.71295 -119.51869 22007 ft 332 kts 351°
2026-04-29 17:33 38.73552 -119.52172 21656 ft 331 kts 351°
2026-04-29 17:34 38.75837 -119.52482 21307 ft 329 kts 351°
2026-04-29 17:34 38.78112 -119.52792 20961 ft 328 kts 351°
2026-04-29 17:34 38.80380 -119.53102 20610 ft 327 kts 351°
2026-04-29 17:34 38.82641 -119.53411 20265 ft 326 kts 351°
2026-04-29 17:35 38.86381 -119.53917 19694 ft 324 kts 352°
2026-04-29 17:35 38.89341 -119.54321 19255 ft 322 kts 352°
2026-04-29 17:35 38.91566 -119.54626 18905 ft 321 kts 352°
2026-04-29 17:36 38.93781 -119.54929 18571 ft 320 kts 352°
2026-04-29 17:36 38.95987 -119.55231 18226 ft 318 kts 352°
2026-04-29 17:36 38.98181 -119.55532 17891 ft 316 kts 352°
2026-04-29 17:36 39.00364 -119.55835 17472 ft 316 kts 352°
2026-04-29 17:37 39.02557 -119.56141 17031 ft 318 kts 352°
2026-04-29 17:37 39.04756 -119.56450 16633 ft 318 kts 352°
2026-04-29 17:37 39.06947 -119.56759 16291 ft 316 kts 352°
2026-04-29 17:37 39.09100 -119.57057 16002 ft 315 kts 352°
2026-04-29 17:38 39.11276 -119.57359 15666 ft 314 kts 352°
2026-04-29 17:38 39.13430 -119.57658 15323 ft 308 kts 352°
2026-04-29 17:38 39.15530 -119.57949 14976 ft 300 kts 352°
2026-04-29 17:38 39.17592 -119.58236 14667 ft 298 kts 352°
2026-04-29 17:39 39.19643 -119.58522 14344 ft 295 kts 352°
2026-04-29 17:39 39.21700 -119.58809 14032 ft 300 kts 353°
2026-04-29 17:39 39.23775 -119.59099 13699 ft 300 kts 352°
2026-04-29 17:39 39.25814 -119.59382 13393 ft 298 kts 353°
2026-04-29 17:40 39.27868 -119.59669 13069 ft 296 kts 353°
2026-04-29 17:40 39.29905 -119.59954 12763 ft 295 kts 353°
2026-04-29 17:40 39.31942 -119.60239 12465 ft 294 kts 353°
2026-04-29 17:40 39.33977 -119.60524 12155 ft 293 kts 353°
2026-04-29 17:41 39.36004 -119.60807 11851 ft 292 kts 353°
2026-04-29 17:41 39.38027 -119.61089 11509 ft 292 kts 353°
2026-04-29 17:41 39.40040 -119.61372 11203 ft 291 kts 353°
2026-04-29 17:41 39.42051 -119.61654 10894 ft 290 kts 353°
2026-04-29 17:42 39.43980 -119.61924 10795 ft 275 kts 353°
2026-04-29 17:42 39.45835 -119.62184 10625 ft 261 kts 353°
2026-04-29 17:42 39.47594 -119.62429 10489 ft 248 kts 353°
2026-04-29 17:42 39.49267 -119.62551 10357 ft 237 kts 358°
2026-04-29 17:43 39.50902 -119.62546 10142 ft 229 kts
2026-04-29 17:43 39.52492 -119.62515 9576 ft 227 kts 360°
2026-04-29 17:43 39.54059 -119.62501 9010 ft 222 kts
2026-04-29 17:43 39.55566 -119.62665 8427 ft 215 kts 349°
2026-04-29 17:44 39.56971 -119.63064 7910 ft 207 kts 343°
2026-04-29 17:44 39.58312 -119.63654 7370 ft 201 kts 340°
2026-04-29 17:44 39.59538 -119.64481 7002 ft 193 kts 327°
2026-04-29 17:44 39.60596 -119.65513 6968 ft 190 kts 310°
2026-04-29 17:45 39.61071 -119.67000 7011 ft 184 kts 274°
2026-04-29 17:45 39.60903 -119.68624 7027 ft 181 kts 263°
2026-04-29 17:45 39.60771 -119.70221 6763 ft 177 kts 265°
2026-04-29 17:45 39.60668 -119.71773 6572 ft 169 kts 265°
2026-04-29 17:46 39.60476 -119.73273 6349 ft 168 kts 251°
2026-04-29 17:46 39.59927 -119.74591 6203 ft 166 kts 232°
2026-04-29 17:46 39.59063 -119.75596 6181 ft 168 kts 214°
2026-04-29 17:46 39.58029 -119.76282 6159 ft 163 kts 201°
2026-04-29 17:47 39.56901 -119.76635 5995 ft 174 kts 187°
2026-04-29 17:47 39.55688 -119.76659 5551 ft 169 kts 177°
2026-04-29 17:47 39.54551 -119.76642 5142 ft 160 kts 179°
2026-04-29 17:47 39.53467 -119.76647 4836 ft 153 kts 180°
2026-04-29 17:48 39.52421 -119.76659 4663 ft 155 kts 180°
2026-04-29 17:48 39.51338 -119.76673 4446 ft 154 kts 179°
2026-04-29 17:48 39.50475 -119.76676 4416 ft 77 kts 180°
2026-04-29 17:48 39.50010 -119.76680 4415 ft 49 kts 179°
2026-04-29 17:49 39.49754 -119.76706 4420 ft 24 kts 224°
2026-04-29 17:49 39.49736 -119.76782 4421 ft 0 kts 271°
2026-04-29 17:51 39.49737 -119.76862 4422 ft 22 kts 270°
2026-04-29 17:51 39.49737 -119.77080 4417 ft 25 kts 271°
2026-04-29 17:51 39.49864 -119.77153 4420 ft 22 kts
2026-04-29 17:51 39.50012 -119.77150 4419 ft 21 kts
2026-04-29 17:52 39.50154 -119.77153 4419 ft 20 kts 359°
2026-04-29 17:52 39.50243 -119.77156 4421 ft 18 kts 359°
2026-04-29 17:52 39.50400 -119.77161 4420 ft 16 kts 358°
2026-04-29 17:52 39.50504 -119.77166 4419 ft 14 kts 357°
2026-04-29 17:53 39.50524 -119.77216 4420 ft 7 kts 245°
2026-04-29 17:53 39.50516 -119.77236 4420 ft 0 kts 245°